Year,Month,Day,Hour,Minute,Value (Times are PST for temperature in C)
2009,02,04,00,00,3.40
2009,02,04,00,01,3.40
2009,02,04,00,02,3.40
2009,02,04,00,03,3.40
2009,02,04,00,04,3.40
2009,02,04,00,05,3.40
2009,02,04,00,06,3.40
2009,02,04,00,07,3.40
2009,02,04,00,08,3.40
2009,02,04,00,09,3.40
2009,02,04,00,10,3.40
2009,02,04,00,11,3.40
2009,02,04,00,12,3.40
2009,02,04,00,13,3.40
2009,02,04,00,14,3.40
2009,02,04,00,15,3.40
2009,02,04,00,16,3.40
2009,02,04,00,17,3.40
2009,02,04,00,18,3.40
2009,02,04,00,19,3.40
2009,02,04,00,20,3.40
2009,02,04,00,21,3.40
2009,02,04,00,22,3.40
2009,02,04,00,23,3.40
2009,02,04,00,24,3.40
2009,02,04,00,25,3.40
2009,02,04,00,26,3.40
2009,02,04,00,27,3.40
2009,02,04,00,28,3.40
2009,02,04,00,29,3.40
2009,02,04,00,30,3.30
2009,02,04,00,31,3.30
2009,02,04,00,32,3.30
2009,02,04,00,33,3.30
2009,02,04,00,34,3.30
2009,02,04,00,35,3.30
2009,02,04,00,36,3.30
2009,02,04,00,37,3.30
2009,02,04,00,38,3.30
2009,02,04,00,39,3.30
2009,02,04,00,40,3.30
2009,02,04,00,41,3.30
2009,02,04,00,42,3.30
2009,02,04,00,43,3.30
2009,02,04,00,44,3.30
2009,02,04,00,45,3.30
2009,02,04,00,46,3.30
2009,02,04,00,47,3.30
2009,02,04,00,48,3.30
2009,02,04,00,49,3.30
2009,02,04,00,50,3.30
2009,02,04,00,51,3.30
2009,02,04,00,52,3.30
2009,02,04,00,53,3.30
2009,02,04,00,54,3.30
2009,02,04,00,55,3.30
2009,02,04,00,56,3.30
2009,02,04,00,57,3.30
2009,02,04,00,58,3.30
2009,02,04,00,59,3.30
2009,02,04,01,00,3.30
2009,02,04,01,01,3.30
2009,02,04,01,02,3.30
2009,02,04,01,03,3.30
2009,02,04,01,04,3.20
2009,02,04,01,05,3.20
2009,02,04,01,06,3.20
2009,02,04,01,07,3.20
2009,02,04,01,08,3.20
2009,02,04,01,09,3.10
2009,02,04,01,10,3.20
2009,02,04,01,11,3.20
2009,02,04,01,12,3.20
2009,02,04,01,13,3.20
2009,02,04,01,14,3.20
2009,02,04,01,15,3.20
2009,02,04,01,16,3.20
2009,02,04,01,17,3.20
2009,02,04,01,18,3.20
2009,02,04,01,19,3.20
2009,02,04,01,20,3.20
2009,02,04,01,21,3.20
2009,02,04,01,22,3.20
2009,02,04,01,23,3.20
2009,02,04,01,24,3.20
2009,02,04,01,25,3.20
2009,02,04,01,26,3.20
2009,02,04,01,27,3.20
2009,02,04,01,28,3.30
2009,02,04,01,29,3.30
2009,02,04,01,30,3.30
2009,02,04,01,31,3.30
2009,02,04,01,32,3.30
2009,02,04,01,33,3.30
2009,02,04,01,34,3.30
2009,02,04,01,35,3.30
2009,02,04,01,36,3.30
2009,02,04,01,37,3.40
2009,02,04,01,38,3.40
2009,02,04,01,39,3.40
2009,02,04,01,40,3.40
2009,02,04,01,41,3.40
2009,02,04,01,42,3.40
2009,02,04,01,43,3.40
2009,02,04,01,44,3.40
2009,02,04,01,45,3.40
2009,02,04,01,46,3.40
2009,02,04,01,47,3.40
2009,02,04,01,48,3.40
2009,02,04,01,49,3.40
2009,02,04,01,50,3.40
2009,02,04,01,51,3.40
2009,02,04,01,52,3.30
2009,02,04,01,53,3.30
2009,02,04,01,54,3.30
2009,02,04,01,55,3.30
2009,02,04,01,56,3.30
2009,02,04,01,57,3.30
2009,02,04,01,58,3.30
2009,02,04,01,59,3.30
2009,02,04,02,00,3.30
2009,02,04,02,01,3.30
2009,02,04,02,02,3.30
2009,02,04,02,03,3.20
2009,02,04,02,04,3.20
2009,02,04,02,05,3.20
2009,02,04,02,06,3.20
2009,02,04,02,07,3.20
2009,02,04,02,08,3.20
2009,02,04,02,09,3.10
2009,02,04,02,10,3.10
2009,02,04,02,11,3.10
2009,02,04,02,12,3.10
2009,02,04,02,13,3.10
2009,02,04,02,14,3.10
2009,02,04,02,15,3.10
2009,02,04,02,16,3.10
2009,02,04,02,17,3.10
2009,02,04,02,18,3.10
2009,02,04,02,19,3.10
2009,02,04,02,20,3.10
2009,02,04,02,21,3.10
2009,02,04,02,22,3.10
2009,02,04,02,23,3.10
2009,02,04,02,24,3.10
2009,02,04,02,25,3.10
2009,02,04,02,26,3.10
2009,02,04,02,27,3.10
2009,02,04,02,28,3.10
2009,02,04,02,29,3.10
2009,02,04,02,30,3.10
2009,02,04,02,31,3.00
2009,02,04,02,32,2.90
2009,02,04,02,33,2.90
2009,02,04,02,34,2.90
2009,02,04,02,35,2.90
2009,02,04,02,36,2.90
2009,02,04,02,37,2.90
2009,02,04,02,38,2.90
2009,02,04,02,39,2.90
2009,02,04,02,40,2.90
2009,02,04,02,41,2.90
2009,02,04,02,42,2.90
2009,02,04,02,43,2.80
2009,02,04,02,44,2.80
2009,02,04,02,45,2.80
2009,02,04,02,46,2.80
2009,02,04,02,47,2.80
2009,02,04,02,48,2.80
2009,02,04,02,49,2.80
2009,02,04,02,50,2.80
2009,02,04,02,51,2.80
2009,02,04,02,52,2.80
2009,02,04,02,53,2.70
2009,02,04,02,54,2.70
2009,02,04,02,55,2.70
2009,02,04,02,56,2.70
2009,02,04,02,57,2.70
2009,02,04,02,58,2.70
2009,02,04,02,59,2.70
2009,02,04,03,00,2.70
2009,02,04,03,01,2.70
2009,02,04,03,02,2.70
2009,02,04,03,03,2.70
2009,02,04,03,04,2.70
2009,02,04,03,05,2.70
2009,02,04,03,06,2.70
2009,02,04,03,07,2.70
2009,02,04,03,08,2.70
2009,02,04,03,09,2.70
2009,02,04,03,10,2.60
2009,02,04,03,11,2.60
2009,02,04,03,12,2.60
2009,02,04,03,13,2.60
2009,02,04,03,14,2.60
2009,02,04,03,15,2.60
2009,02,04,03,16,2.50
2009,02,04,03,17,2.50
2009,02,04,03,18,2.50
2009,02,04,03,19,2.50
2009,02,04,03,20,2.50
2009,02,04,03,21,2.50
2009,02,04,03,22,2.40
2009,02,04,03,23,2.40
2009,02,04,03,24,2.50
2009,02,04,03,25,2.50
2009,02,04,03,26,2.50
2009,02,04,03,27,2.50
2009,02,04,03,28,2.50
2009,02,04,03,29,2.50
2009,02,04,03,30,2.60
2009,02,04,03,31,2.60
2009,02,04,03,32,2.60
2009,02,04,03,33,2.60
2009,02,04,03,34,2.60
2009,02,04,03,35,2.60
2009,02,04,03,36,2.60
2009,02,04,03,37,2.60
2009,02,04,03,38,2.60
2009,02,04,03,39,2.60
2009,02,04,03,40,2.60
2009,02,04,03,41,2.60
2009,02,04,03,42,2.60
2009,02,04,03,43,2.60
2009,02,04,03,44,2.60
2009,02,04,03,45,2.60
2009,02,04,03,46,2.60
2009,02,04,03,47,2.50
2009,02,04,03,48,2.50
2009,02,04,03,49,2.50
2009,02,04,03,50,2.50
2009,02,04,03,51,2.50
2009,02,04,03,52,2.50
2009,02,04,03,53,2.50
2009,02,04,03,54,2.60
2009,02,04,03,55,2.60
2009,02,04,03,56,2.60
2009,02,04,03,57,2.60
2009,02,04,03,58,2.60
2009,02,04,03,59,2.70
2009,02,04,04,00,2.70
2009,02,04,04,01,2.70
2009,02,04,04,02,2.70
2009,02,04,04,03,2.70
2009,02,04,04,04,2.70
2009,02,04,04,05,2.70
2009,02,04,04,06,2.70
2009,02,04,04,07,2.60
2009,02,04,04,08,2.60
2009,02,04,04,09,2.60
2009,02,04,04,10,2.60
2009,02,04,04,11,2.60
2009,02,04,04,12,2.60
2009,02,04,04,13,2.60
2009,02,04,04,14,2.60
2009,02,04,04,15,2.60
2009,02,04,04,16,2.60
2009,02,04,04,17,2.60
2009,02,04,04,18,2.60
2009,02,04,04,19,2.60
2009,02,04,04,20,2.60
2009,02,04,04,21,2.60
2009,02,04,04,22,2.60
2009,02,04,04,23,2.60
2009,02,04,04,24,2.60
2009,02,04,04,25,2.60
2009,02,04,04,26,2.60
2009,02,04,04,27,2.60
2009,02,04,04,28,2.60
2009,02,04,04,29,2.60
2009,02,04,04,30,2.60
2009,02,04,04,31,2.60
2009,02,04,04,32,2.60
2009,02,04,04,33,2.60
2009,02,04,04,34,2.60
2009,02,04,04,35,2.60
2009,02,04,04,36,2.50
2009,02,04,04,37,2.50
2009,02,04,04,38,2.50
2009,02,04,04,39,2.50
2009,02,04,04,40,2.50
2009,02,04,04,41,2.50
2009,02,04,04,42,2.50
2009,02,04,04,43,2.50
2009,02,04,04,44,2.50
2009,02,04,04,45,2.60
2009,02,04,04,46,2.60
2009,02,04,04,47,2.60
2009,02,04,04,48,2.60
2009,02,04,04,49,2.60
2009,02,04,04,50,2.70
2009,02,04,04,51,2.70
2009,02,04,04,52,2.70
2009,02,04,04,53,2.70
2009,02,04,04,54,2.70
2009,02,04,04,55,2.70
2009,02,04,04,56,2.70
2009,02,04,04,57,2.70
2009,02,04,04,58,2.70
2009,02,04,04,59,2.70
2009,02,04,05,00,2.70
2009,02,04,05,01,2.70
2009,02,04,05,02,2.70
2009,02,04,05,03,2.70
2009,02,04,05,04,2.70
2009,02,04,05,05,2.60
2009,02,04,05,06,2.60
2009,02,04,05,07,2.60
2009,02,04,05,08,2.60
2009,02,04,05,09,2.60
2009,02,04,05,10,2.60
2009,02,04,05,11,2.60
2009,02,04,05,12,2.60
2009,02,04,05,13,2.60
2009,02,04,05,14,2.60
2009,02,04,05,15,2.60
2009,02,04,05,16,2.60
2009,02,04,05,17,2.60
2009,02,04,05,18,2.60
2009,02,04,05,19,2.60
2009,02,04,05,20,2.60
2009,02,04,05,21,2.60
2009,02,04,05,22,2.70
2009,02,04,05,23,2.70
2009,02,04,05,24,2.70
2009,02,04,05,25,2.70
2009,02,04,05,26,2.70
2009,02,04,05,27,2.70
2009,02,04,05,28,2.70
2009,02,04,05,29,2.70
2009,02,04,05,30,2.70
2009,02,04,05,31,2.70
2009,02,04,05,32,2.60
2009,02,04,05,33,2.60
2009,02,04,05,34,2.60
2009,02,04,05,35,2.60
2009,02,04,05,36,2.70
2009,02,04,05,37,2.70
2009,02,04,05,38,2.60
2009,02,04,05,39,2.60
2009,02,04,05,40,2.60
2009,02,04,05,41,2.60
2009,02,04,05,42,2.60
2009,02,04,05,43,2.60
2009,02,04,05,44,2.60
2009,02,04,05,45,2.60
2009,02,04,05,46,2.60
2009,02,04,05,47,2.60
2009,02,04,05,48,2.60
2009,02,04,05,49,2.60
2009,02,04,05,50,2.60
2009,02,04,05,51,2.60
2009,02,04,05,52,2.50
2009,02,04,05,53,2.50
2009,02,04,05,54,2.50
2009,02,04,05,55,2.50
2009,02,04,05,56,2.50
2009,02,04,05,57,2.50
2009,02,04,05,58,2.50
2009,02,04,05,59,2.50
2009,02,04,06,00,2.50
2009,02,04,06,01,2.50
2009,02,04,06,02,2.50
2009,02,04,06,03,2.50
2009,02,04,06,04,2.40
2009,02,04,06,05,2.40
2009,02,04,06,06,2.40
2009,02,04,06,07,2.40
2009,02,04,06,08,2.30
2009,02,04,06,09,2.30
2009,02,04,06,10,2.30
2009,02,04,06,11,2.30
2009,02,04,06,12,2.30
2009,02,04,06,13,2.30
2009,02,04,06,14,2.30
2009,02,04,06,15,2.30
2009,02,04,06,16,2.30
2009,02,04,06,17,2.30
2009,02,04,06,18,2.30
2009,02,04,06,19,2.30
2009,02,04,06,20,2.30
2009,02,04,06,21,2.30
2009,02,04,06,22,2.30
2009,02,04,06,23,2.30
2009,02,04,06,24,2.30
2009,02,04,06,25,2.30
2009,02,04,06,26,2.30
2009,02,04,06,27,2.30
2009,02,04,06,28,2.30
2009,02,04,06,29,2.30
2009,02,04,06,30,2.30
2009,02,04,06,31,2.30
2009,02,04,06,32,2.30
2009,02,04,06,33,2.20
2009,02,04,06,34,2.20
2009,02,04,06,35,2.20
2009,02,04,06,36,2.20
2009,02,04,06,37,2.20
2009,02,04,06,38,2.20
2009,02,04,06,39,2.20
2009,02,04,06,40,2.20
2009,02,04,06,41,2.20
2009,02,04,06,42,2.20
2009,02,04,06,43,2.20
2009,02,04,06,44,2.20
2009,02,04,06,45,2.20
2009,02,04,06,46,2.20
2009,02,04,06,47,2.20
2009,02,04,06,48,2.20
2009,02,04,06,49,2.20
2009,02,04,06,50,2.20
2009,02,04,06,51,2.20
2009,02,04,06,52,2.20
2009,02,04,06,53,2.20
2009,02,04,06,54,2.20
2009,02,04,06,55,2.20
2009,02,04,06,56,2.20
2009,02,04,06,57,2.20
2009,02,04,06,58,2.20
2009,02,04,06,59,2.20
2009,02,04,07,00,2.20
2009,02,04,07,01,2.20
2009,02,04,07,02,2.20
2009,02,04,07,03,2.20
2009,02,04,07,04,2.20
2009,02,04,07,05,2.20
2009,02,04,07,06,2.20
2009,02,04,07,07,2.20
2009,02,04,07,08,2.20
2009,02,04,07,09,2.20
2009,02,04,07,10,2.20
2009,02,04,07,11,2.20
2009,02,04,07,12,2.20
2009,02,04,07,13,2.20
2009,02,04,07,14,2.20
2009,02,04,07,15,2.20
2009,02,04,07,16,2.20
2009,02,04,07,17,2.20
2009,02,04,07,18,2.20
2009,02,04,07,19,2.20
2009,02,04,07,20,2.10
2009,02,04,07,21,2.10
2009,02,04,07,22,2.10
2009,02,04,07,23,2.10
2009,02,04,07,24,2.10
2009,02,04,07,25,2.20
2009,02,04,07,26,2.20
2009,02,04,07,27,2.20
2009,02,04,07,28,2.20
2009,02,04,07,29,2.20
2009,02,04,07,30,2.20
2009,02,04,07,31,2.20
2009,02,04,07,32,2.20
2009,02,04,07,33,2.20
2009,02,04,07,34,2.20
2009,02,04,07,35,2.20
2009,02,04,07,36,2.20
2009,02,04,07,37,2.20
2009,02,04,07,38,2.10
2009,02,04,07,39,2.10
2009,02,04,07,40,2.10
2009,02,04,07,41,2.10
2009,02,04,07,42,2.10
2009,02,04,07,43,2.10
2009,02,04,07,44,2.10
2009,02,04,07,45,2.10
2009,02,04,07,46,2.10
2009,02,04,07,47,2.10
2009,02,04,07,48,2.10
2009,02,04,07,49,2.10
2009,02,04,07,50,2.10
2009,02,04,07,51,2.00
2009,02,04,07,52,2.10
2009,02,04,07,53,2.10
2009,02,04,07,54,2.10
2009,02,04,07,55,2.10
2009,02,04,07,56,2.10
2009,02,04,07,57,2.10
2009,02,04,07,58,2.10
2009,02,04,07,59,2.10
2009,02,04,08,00,2.10
2009,02,04,08,01,2.10
2009,02,04,08,02,2.10
2009,02,04,08,03,2.10
2009,02,04,08,04,2.10
2009,02,04,08,05,2.10
2009,02,04,08,06,2.00
2009,02,04,08,07,2.10
2009,02,04,08,08,2.10
2009,02,04,08,09,2.10
2009,02,04,08,10,2.00
2009,02,04,08,11,2.00
2009,02,04,08,12,2.00
2009,02,04,08,13,2.00
2009,02,04,08,14,2.00
2009,02,04,08,15,2.00
2009,02,04,08,16,2.00
2009,02,04,08,17,2.00
2009,02,04,08,18,2.00
2009,02,04,08,19,2.00
2009,02,04,08,20,2.00
2009,02,04,08,21,2.00
2009,02,04,08,22,2.00
2009,02,04,08,23,2.00
2009,02,04,08,24,2.10
2009,02,04,08,25,2.10
2009,02,04,08,26,2.10
2009,02,04,08,27,2.10
2009,02,04,08,28,2.10
2009,02,04,08,29,2.10
2009,02,04,08,30,2.20
2009,02,04,08,31,2.20
2009,02,04,08,32,2.20
2009,02,04,08,33,2.20
2009,02,04,08,34,2.20
2009,02,04,08,35,2.20
2009,02,04,08,36,2.20
2009,02,04,08,37,2.20
2009,02,04,08,38,2.20
2009,02,04,08,39,2.20
2009,02,04,08,40,2.20
2009,02,04,08,41,2.20
2009,02,04,08,42,2.30
2009,02,04,08,43,2.30
2009,02,04,08,44,2.30
2009,02,04,08,45,2.30
2009,02,04,08,46,2.30
2009,02,04,08,47,2.30
2009,02,04,08,48,2.30
2009,02,04,08,49,2.30
2009,02,04,08,50,2.30
2009,02,04,08,51,2.30
2009,02,04,08,52,2.30
2009,02,04,08,53,2.30
2009,02,04,08,54,2.30
2009,02,04,08,55,2.30
2009,02,04,08,56,2.30
2009,02,04,08,57,2.30
2009,02,04,08,58,2.30
2009,02,04,08,59,2.30
2009,02,04,09,00,2.30
2009,02,04,09,01,2.30
2009,02,04,09,02,2.30
2009,02,04,09,03,2.30
2009,02,04,09,04,2.30
2009,02,04,09,05,2.30
2009,02,04,09,06,2.30
2009,02,04,09,07,2.30
2009,02,04,09,08,2.40
2009,02,04,09,09,2.40
2009,02,04,09,10,2.40
2009,02,04,09,11,2.40
2009,02,04,09,12,2.40
2009,02,04,09,13,2.40
2009,02,04,09,14,2.50
2009,02,04,09,15,2.50
2009,02,04,09,16,2.50
2009,02,04,09,17,2.60
2009,02,04,09,18,2.60
2009,02,04,09,19,2.70
2009,02,04,09,20,2.70
2009,02,04,09,21,2.70
2009,02,04,09,22,2.70
2009,02,04,09,23,2.80
2009,02,04,09,24,2.80
2009,02,04,09,25,2.90
2009,02,04,09,26,2.90
2009,02,04,09,27,2.90
2009,02,04,09,28,2.90
2009,02,04,09,29,2.90
2009,02,04,09,30,2.90
2009,02,04,09,31,3.00
2009,02,04,09,32,3.10
2009,02,04,09,33,3.10
2009,02,04,09,34,3.10
2009,02,04,09,35,3.20
2009,02,04,09,36,3.20
2009,02,04,09,37,3.30
2009,02,04,09,38,3.30
2009,02,04,09,39,3.30
2009,02,04,09,40,3.40
2009,02,04,09,41,3.50
2009,02,04,09,42,3.50
2009,02,04,09,43,3.60
2009,02,04,09,44,3.60
2009,02,04,09,45,3.70
2009,02,04,09,46,3.70
2009,02,04,09,47,3.80
2009,02,04,09,48,3.80
2009,02,04,09,49,3.80
2009,02,04,09,50,3.90
2009,02,04,09,51,3.90
2009,02,04,09,52,3.90
2009,02,04,09,53,4.00
2009,02,04,09,54,4.00
2009,02,04,09,55,4.00
2009,02,04,09,56,4.00
2009,02,04,09,57,4.10
2009,02,04,09,58,4.10
2009,02,04,09,59,4.20
2009,02,04,10,00,4.20
2009,02,04,10,01,4.20
2009,02,04,10,02,4.20
2009,02,04,10,03,4.20
2009,02,04,10,04,4.30
2009,02,04,10,05,4.30
2009,02,04,10,06,4.40
2009,02,04,10,07,4.40
2009,02,04,10,08,4.50
2009,02,04,10,09,4.50
2009,02,04,10,10,4.60
2009,02,04,10,11,4.60
2009,02,04,10,12,4.70
2009,02,04,10,13,4.70
2009,02,04,10,14,4.80
2009,02,04,10,15,4.80
2009,02,04,10,16,4.90
2009,02,04,10,17,4.90
2009,02,04,10,18,5.00
2009,02,04,10,19,5.10
2009,02,04,10,20,5.10
2009,02,04,10,21,5.20
2009,02,04,10,22,5.20
2009,02,04,10,23,5.30
2009,02,04,10,24,5.30
2009,02,04,10,25,5.40
2009,02,04,10,26,5.40
2009,02,04,10,27,5.50
2009,02,04,10,28,5.50
2009,02,04,10,29,5.60
2009,02,04,10,30,5.60
2009,02,04,10,31,5.70
2009,02,04,10,32,5.70
2009,02,04,10,33,5.70
2009,02,04,10,34,5.70
2009,02,04,10,35,5.80
2009,02,04,10,36,5.80
2009,02,04,10,37,5.90
2009,02,04,10,38,5.90
2009,02,04,10,39,5.90
2009,02,04,10,40,5.90
2009,02,04,10,41,5.90
2009,02,04,10,42,6.00
2009,02,04,10,43,6.00
2009,02,04,10,44,6.00
2009,02,04,10,45,6.00
2009,02,04,10,46,6.00
2009,02,04,10,47,6.00
2009,02,04,10,48,6.00
2009,02,04,10,49,6.00
2009,02,04,10,50,6.00
2009,02,04,10,51,6.10
2009,02,04,10,52,6.10
2009,02,04,10,53,6.10
2009,02,04,10,54,6.20
2009,02,04,10,55,6.20
2009,02,04,10,56,6.20
2009,02,04,10,57,6.20
2009,02,04,10,58,6.20
2009,02,04,10,59,6.20
2009,02,04,11,00,6.30
2009,02,04,11,01,6.30
2009,02,04,11,02,6.40
2009,02,04,11,03,6.40
2009,02,04,11,04,6.40
2009,02,04,11,05,6.40
2009,02,04,11,06,6.40
2009,02,04,11,07,6.50
2009,02,04,11,08,6.60
2009,02,04,11,09,6.60
2009,02,04,11,10,6.60
2009,02,04,11,11,6.70
2009,02,04,11,12,6.70
2009,02,04,11,13,6.80
2009,02,04,11,14,6.80
2009,02,04,11,15,6.80
2009,02,04,11,16,6.90
2009,02,04,11,17,7.00
2009,02,04,11,18,7.00
2009,02,04,11,19,7.10
2009,02,04,11,20,7.10
2009,02,04,11,21,7.20
2009,02,04,11,22,7.30
2009,02,04,11,23,7.30
2009,02,04,11,24,7.40
2009,02,04,11,25,7.40
2009,02,04,11,26,7.50
2009,02,04,11,27,7.50
2009,02,04,11,28,7.60
2009,02,04,11,29,7.60
2009,02,04,11,30,7.70
2009,02,04,11,31,7.70
2009,02,04,11,32,7.80
2009,02,04,11,33,7.80
2009,02,04,11,34,7.90
2009,02,04,11,35,7.90
2009,02,04,11,36,8.00
2009,02,04,11,37,8.10
2009,02,04,11,38,8.20
2009,02,04,11,39,8.20
2009,02,04,11,40,8.20
2009,02,04,11,41,8.20
2009,02,04,11,42,8.20
2009,02,04,11,43,8.30
2009,02,04,11,44,8.30
2009,02,04,11,45,8.30
2009,02,04,11,46,8.40
2009,02,04,11,47,8.40
2009,02,04,11,48,8.40
2009,02,04,11,49,8.40
2009,02,04,11,50,8.30
2009,02,04,11,51,8.30
2009,02,04,11,52,8.20
2009,02,04,11,53,8.20
2009,02,04,11,54,8.20
2009,02,04,11,55,8.20
2009,02,04,11,56,8.20
2009,02,04,11,57,8.20
2009,02,04,11,58,8.20
2009,02,04,11,59,8.20
2009,02,04,12,00,8.20
2009,02,04,12,01,8.30
2009,02,04,12,02,8.30
2009,02,04,12,03,8.40
2009,02,04,12,04,8.40
2009,02,04,12,05,8.40
2009,02,04,12,06,8.40
2009,02,04,12,07,8.40
2009,02,04,12,08,8.50
2009,02,04,12,09,8.50
2009,02,04,12,10,8.50
2009,02,04,12,11,8.50
2009,02,04,12,12,8.60
2009,02,04,12,13,8.70
2009,02,04,12,14,8.70
2009,02,04,12,15,8.80
2009,02,04,12,16,8.90
2009,02,04,12,17,9.00
2009,02,04,12,18,9.10
2009,02,04,12,19,9.10
2009,02,04,12,20,9.20
2009,02,04,12,21,9.20
2009,02,04,12,22,9.20
2009,02,04,12,23,9.20
2009,02,04,12,24,9.20
2009,02,04,12,25,9.10
2009,02,04,12,26,9.10
2009,02,04,12,27,9.10
2009,02,04,12,28,9.00
2009,02,04,12,29,9.00
2009,02,04,12,30,9.00
2009,02,04,12,31,9.00
2009,02,04,12,32,9.00
2009,02,04,12,33,9.00
2009,02,04,12,34,9.10
2009,02,04,12,35,9.10
2009,02,04,12,36,9.10
2009,02,04,12,37,9.20
2009,02,04,12,38,9.30
2009,02,04,12,39,9.20
2009,02,04,12,40,9.20
2009,02,04,12,41,9.20
2009,02,04,12,42,9.30
2009,02,04,12,43,9.40
2009,02,04,12,44,9.40
2009,02,04,12,45,9.50
2009,02,04,12,46,9.50
2009,02,04,12,47,9.50
2009,02,04,12,48,9.60
2009,02,04,12,49,9.60
2009,02,04,12,50,9.60
2009,02,04,12,51,9.60
2009,02,04,12,52,9.50
2009,02,04,12,53,9.50
2009,02,04,12,54,9.60
2009,02,04,12,55,9.60
2009,02,04,12,56,9.70
2009,02,04,12,57,9.70
2009,02,04,12,58,9.70
2009,02,04,12,59,9.70
2009,02,04,13,00,9.70
2009,02,04,13,01,9.70
2009,02,04,13,02,9.70
2009,02,04,13,03,9.70
2009,02,04,13,04,9.70
2009,02,04,13,05,9.70
2009,02,04,13,06,9.70
2009,02,04,13,07,9.70
2009,02,04,13,08,9.80
2009,02,04,13,09,9.90
2009,02,04,13,10,9.90
2009,02,04,13,11,9.90
2009,02,04,13,12,9.90
2009,02,04,13,13,10.00
2009,02,04,13,14,10.10
2009,02,04,13,15,10.10
2009,02,04,13,16,10.10
2009,02,04,13,17,10.20
2009,02,04,13,18,10.10
2009,02,04,13,19,10.10
2009,02,04,13,20,10.10
2009,02,04,13,21,10.10
2009,02,04,13,22,10.00
2009,02,04,13,23,9.90
2009,02,04,13,24,9.90
2009,02,04,13,25,10.10
2009,02,04,13,26,10.10
2009,02,04,13,27,10.10
2009,02,04,13,28,10.10
2009,02,04,13,29,10.10
2009,02,04,13,30,10.10
2009,02,04,13,31,9.90
2009,02,04,13,32,9.90
2009,02,04,13,33,9.90
2009,02,04,13,34,9.80
2009,02,04,13,35,9.80
2009,02,04,13,36,9.80
2009,02,04,13,37,9.80
2009,02,04,13,38,9.80
2009,02,04,13,39,9.70
2009,02,04,13,40,9.70
2009,02,04,13,41,9.70
2009,02,04,13,42,9.60
2009,02,04,13,43,9.50
2009,02,04,13,44,9.50
2009,02,04,13,45,9.50
2009,02,04,13,46,9.50
2009,02,04,13,47,9.50
2009,02,04,13,48,9.60
2009,02,04,13,49,9.70
2009,02,04,13,50,9.70
2009,02,04,13,51,9.70
2009,02,04,13,52,9.70
2009,02,04,13,53,9.70
2009,02,04,13,54,9.80
2009,02,04,13,55,9.80
2009,02,04,13,56,9.80
2009,02,04,13,57,9.90
2009,02,04,13,58,9.90
2009,02,04,13,59,9.90
2009,02,04,14,00,9.90
2009,02,04,14,01,9.90
2009,02,04,14,02,9.90
2009,02,04,14,03,9.90
2009,02,04,14,04,9.80
2009,02,04,14,05,9.80
2009,02,04,14,06,9.80
2009,02,04,14,07,9.80
2009,02,04,14,08,9.80
2009,02,04,14,09,9.70
2009,02,04,14,10,9.70
2009,02,04,14,11,9.80
2009,02,04,14,12,9.80
2009,02,04,14,13,9.80
2009,02,04,14,14,9.90
2009,02,04,14,15,9.90
2009,02,04,14,16,9.80
2009,02,04,14,17,9.90
2009,02,04,14,18,9.90
2009,02,04,14,19,9.90
2009,02,04,14,20,10.00
2009,02,04,14,21,10.10
2009,02,04,14,22,10.10
2009,02,04,14,23,10.10
2009,02,04,14,24,10.10
2009,02,04,14,25,10.10
2009,02,04,14,26,10.00
2009,02,04,14,27,9.90
2009,02,04,14,28,10.00
2009,02,04,14,29,10.00
2009,02,04,14,30,10.10
2009,02,04,14,31,10.00
2009,02,04,14,32,9.90
2009,02,04,14,33,9.90
2009,02,04,14,34,9.90
2009,02,04,14,35,9.90
2009,02,04,14,36,9.90
2009,02,04,14,37,9.90
2009,02,04,14,38,9.90
2009,02,04,14,39,9.90
2009,02,04,14,40,9.90
2009,02,04,14,41,9.90
2009,02,04,14,42,10.00
2009,02,04,14,43,10.10
2009,02,04,14,44,9.90
2009,02,04,14,45,9.90
2009,02,04,14,46,9.90
2009,02,04,14,47,9.90
2009,02,04,14,48,9.90
2009,02,04,14,49,9.90
2009,02,04,14,50,9.90
2009,02,04,14,51,9.90
2009,02,04,14,52,9.90
2009,02,04,14,53,9.90
2009,02,04,14,54,9.90
2009,02,04,14,55,9.90
2009,02,04,14,56,9.90
2009,02,04,14,57,9.90
2009,02,04,14,58,9.90
2009,02,04,14,59,9.90
2009,02,04,15,00,9.90
2009,02,04,15,01,9.80
2009,02,04,15,02,9.80
2009,02,04,15,03,9.90
2009,02,04,15,04,9.90
2009,02,04,15,05,9.90
2009,02,04,15,06,9.90
2009,02,04,15,07,9.90
2009,02,04,15,08,9.90
2009,02,04,15,09,10.00
2009,02,04,15,10,10.10
2009,02,04,15,11,10.10
2009,02,04,15,12,10.10
2009,02,04,15,13,10.20
2009,02,04,15,14,10.20
2009,02,04,15,15,10.20
2009,02,04,15,16,10.20
2009,02,04,15,17,10.30
2009,02,04,15,18,10.30
2009,02,04,15,19,10.30
2009,02,04,15,20,10.30
2009,02,04,15,21,10.40
2009,02,04,15,22,10.40
2009,02,04,15,23,10.40
2009,02,04,15,24,10.40
2009,02,04,15,25,10.40
2009,02,04,15,26,10.40
2009,02,04,15,27,10.40
2009,02,04,15,28,10.40
2009,02,04,15,29,10.40
2009,02,04,15,30,10.40
2009,02,04,15,31,10.40
2009,02,04,15,32,10.40
2009,02,04,15,33,10.40
2009,02,04,15,34,10.40
2009,02,04,15,35,10.30
2009,02,04,15,36,10.20
2009,02,04,15,37,10.20
2009,02,04,15,38,10.20
2009,02,04,15,39,10.10
2009,02,04,15,40,10.10
2009,02,04,15,41,10.00
2009,02,04,15,42,9.90
2009,02,04,15,43,9.90
2009,02,04,15,44,9.90
2009,02,04,15,45,9.90
2009,02,04,15,46,9.90
2009,02,04,15,47,9.80
2009,02,04,15,48,9.80
2009,02,04,15,49,9.80
2009,02,04,15,50,9.80
2009,02,04,15,51,9.80
2009,02,04,15,52,9.80
2009,02,04,15,53,9.80
2009,02,04,15,54,9.90
2009,02,04,15,55,9.90
2009,02,04,15,56,9.80
2009,02,04,15,57,9.80
2009,02,04,15,58,9.80
2009,02,04,15,59,9.80
2009,02,04,16,00,9.70
2009,02,04,16,01,9.70
2009,02,04,16,02,9.70
2009,02,04,16,03,9.70
2009,02,04,16,04,9.70
2009,02,04,16,05,9.70
2009,02,04,16,06,9.70
2009,02,04,16,07,9.70
2009,02,04,16,08,9.70
2009,02,04,16,09,9.70
2009,02,04,16,10,9.70
2009,02,04,16,11,9.70
2009,02,04,16,12,9.70
2009,02,04,16,13,9.70
2009,02,04,16,14,9.70
2009,02,04,16,15,9.70
2009,02,04,16,16,9.70
2009,02,04,16,17,9.70
2009,02,04,16,18,9.70
2009,02,04,16,19,9.70
2009,02,04,16,20,9.70
2009,02,04,16,21,9.70
2009,02,04,16,22,9.60
2009,02,04,16,23,9.60
2009,02,04,16,24,9.60
2009,02,04,16,25,9.60
2009,02,04,16,26,9.50
2009,02,04,16,27,9.50
2009,02,04,16,28,9.40
2009,02,04,16,29,9.40
2009,02,04,16,30,9.30
2009,02,04,16,31,9.30
2009,02,04,16,32,9.20
2009,02,04,16,33,9.20
2009,02,04,16,34,9.20
2009,02,04,16,35,9.20
2009,02,04,16,36,9.20
2009,02,04,16,37,9.10
2009,02,04,16,38,9.10
2009,02,04,16,39,9.10
2009,02,04,16,40,9.00
2009,02,04,16,41,9.00
2009,02,04,16,42,9.00
2009,02,04,16,43,8.90
2009,02,04,16,44,8.90
2009,02,04,16,45,8.80
2009,02,04,16,46,8.80
2009,02,04,16,47,8.70
2009,02,04,16,48,8.70
2009,02,04,16,49,8.70
2009,02,04,16,50,8.70
2009,02,04,16,51,8.70
2009,02,04,16,52,8.60
2009,02,04,16,53,8.60
2009,02,04,16,54,8.50
2009,02,04,16,55,8.50
2009,02,04,16,56,8.40
2009,02,04,16,57,8.30
2009,02,04,16,58,8.30
2009,02,04,16,59,8.20
2009,02,04,17,00,8.20
2009,02,04,17,01,8.20
2009,02,04,17,02,8.10
2009,02,04,17,03,8.10
2009,02,04,17,04,8.10
2009,02,04,17,05,8.00
2009,02,04,17,06,8.00
2009,02,04,17,07,7.90
2009,02,04,17,08,7.90
2009,02,04,17,09,7.80
2009,02,04,17,10,7.80
2009,02,04,17,11,7.80
2009,02,04,17,12,7.80
2009,02,04,17,13,7.70
2009,02,04,17,14,7.70
2009,02,04,17,15,7.60
2009,02,04,17,16,7.60
2009,02,04,17,17,7.60
2009,02,04,17,18,7.50
2009,02,04,17,19,7.50
2009,02,04,17,20,7.50
2009,02,04,17,21,7.40
2009,02,04,17,22,7.40
2009,02,04,17,23,7.40
2009,02,04,17,24,7.30
2009,02,04,17,25,7.30
2009,02,04,17,26,7.30
2009,02,04,17,27,7.30
2009,02,04,17,28,7.30
2009,02,04,17,29,7.20
2009,02,04,17,30,7.20
2009,02,04,17,31,7.10
2009,02,04,17,32,7.10
2009,02,04,17,33,7.00
2009,02,04,17,34,7.00
2009,02,04,17,35,7.00
2009,02,04,17,36,6.90
2009,02,04,17,37,6.90
2009,02,04,17,38,6.80
2009,02,04,17,39,6.80
2009,02,04,17,40,6.80
2009,02,04,17,41,6.80
2009,02,04,17,42,6.80
2009,02,04,17,43,6.80
2009,02,04,17,44,6.80
2009,02,04,17,45,6.80
2009,02,04,17,46,6.80
2009,02,04,17,47,6.80
2009,02,04,17,48,6.70
2009,02,04,17,49,6.70
2009,02,04,17,50,6.70
2009,02,04,17,51,6.70
2009,02,04,17,52,6.70
2009,02,04,17,53,6.70
2009,02,04,17,54,6.70
2009,02,04,17,55,6.70
2009,02,04,17,56,6.70
2009,02,04,17,57,6.70
2009,02,04,17,58,6.70
2009,02,04,17,59,6.70
2009,02,04,18,00,6.70
2009,02,04,18,01,6.70
2009,02,04,18,02,6.70
2009,02,04,18,03,6.70